This is the latest recevied weather packets stored in our database for station/object DM1HF-13. If no packets are shown the sender has not sent any weather packets the latest 10 day(s).
| Time | Temp. | Humidity | Pressure | Rain* | Wind** | Luminosity | Snow |
|---|---|---|---|---|---|---|---|
| 1777669817 | 14.44° C | 53% | 1027.1 hPa | 0 mm | - | 0 W/m² | - |
| 1777669517 | 14.44° C | 53% | 1027.1 hPa | 0 mm | - | 0 W/m² | - |
| 1777669216 | 14.44° C | 51% | 1027.1 hPa | 0 mm | - | 0 W/m² | - |
| 1777668916 | 14.44° C | 51% | 1027.1 hPa | 0 mm | - | 0 W/m² | - |
| 1777668617 | 13.89° C | 54% | 1027.1 hPa | 0 mm | - | 0 W/m² | - |
| 1777668316 | 13.89° C | 55% | 1027.1 hPa | 0 mm | - | 0 W/m² | - |
| 1777668017 | 13.89° C | 55% | 1027.1 hPa | 0 mm | - | 0 W/m² | - |
| 1777667716 | 14.44° C | 56% | 1027.2 hPa | 0 mm | - | 0 W/m² | - |
| 1777667416 | 14.44° C | 54% | 1027.2 hPa | 0 mm | - | 0 W/m² | - |
| 1777667116 | 14.44° C | 54% | 1027.2 hPa | 0 mm | - | 0 W/m² | - |
| 1777666816 | 15° C | 53% | 1027.3 hPa | 0 mm | - | 0 W/m² | - |
| 1777666517 | 15° C | 51% | 1027.3 hPa | 0 mm | - | 0 W/m² | - |
| 1777666216 | 15° C | 52% | 1027.3 hPa | 0 mm | - | 0 W/m² | - |
| 1777665917 | 15° C | 52% | 1027.3 hPa | 0 mm | - | 0 W/m² | - |
| 1777665616 | 15.56° C | 52% | 1027.3 hPa | 0 mm | - | 0 W/m² | - |
| 1777665317 | 15.56° C | 50% | 1027.2 hPa | 0 mm | - | 0 W/m² | - |
| 1777665017 | 15.56° C | 50% | 1027.3 hPa | 0 mm | - | 0 W/m² | - |
| 1777664717 | 16.11° C | 49% | 1027.2 hPa | 0 mm | - | 0 W/m² | - |
| 1777664417 | 16.11° C | 48% | 1027.3 hPa | 0 mm | - | 0 W/m² | - |
| 1777664117 | 16.11° C | 47% | 1027.3 hPa | 0 mm | - | 0 W/m² | - |
| 1777663817 | 16.67° C | 46% | 1027.4 hPa | 0 mm | - | 0 W/m² | - |
| 1777663517 | 17.22° C | 46% | 1027.3 hPa | 0 mm | - | 0 W/m² | - |
| 1777663216 | 17.22° C | 43% | 1027.3 hPa | 0 mm | - | 0 W/m² | - |
| 1777662917 | 17.22° C | 42% | 1027.3 hPa | 0 mm | - | 0 W/m² | - |
| 1777662617 | 17.22° C | 43% | 1027.3 hPa | 0 mm | - | 0 W/m² | - |
* Rain latest hour (hover to see other rain measurements)
** Current wind speed in m/s (hover to see current wind gust speed)